• In Hungary
  • List of Countries
  • For 7 days
  • Water Temperature
  • Satellite Maps
  • Weather Map
  • News
  • Weather Widgets
  • user-avatar
    Login

    Hourly Weather Saarlouis

    Today, 18 November, Saturday

    Time Temperature Precipitation Wind Pressure Humidity
    00:00 +3°C° 0 mm 0 mps 752 mmHg 93%
    01:00 +2°C° 0 mm 0 mps 752 mmHg 93%
    02:00 +2°C° 0 mm 0 mps 751 mmHg 93%
    03:00 +2°C° 0 mm 1 mps 751 mmHg 94%
    04:00 +2°C° 0 mm 1 mps 751 mmHg 94%
    05:00 +2°C° 0 mm 1 mps 751 mmHg 94%
    06:00 +2°C° 0 mm 1 mps 751 mmHg 94%
    07:00 +3°C° 0 mm 1 mps 751 mmHg 91%
    08:00 +3°C° 0 mm 2 mps 751 mmHg 88%
    09:00 +4°C° 0 mm 2 mps 751 mmHg 85%
    10:00 +4°C° 0 mm 3 mps 751 mmHg 80%
    11:00 +4°C° 0 mm 4 mps 751 mmHg 75%
    12:00 +5°C° 0 mm 4 mps 750 mmHg 70%
    13:00 +5°C° 0 mm 4 mps 750 mmHg 73%
    14:00 +5°C° 0 mm 4 mps 749 mmHg 76%
    15:00 +4°C° 0 mm 4 mps 749 mmHg 78%
    16:00 +4°C° 0 mm 4 mps 749 mmHg 80%
    17:00 +4°C° 0 mm 4 mps 749 mmHg 82%
    18:00 +4°C° 0 mm 4 mps 749 mmHg 84%
    19:00 +4°C° 0.2 mm 4 mps 749 mmHg 87%
    20:00 +4°C° 0.2 mm 4 mps 748 mmHg 89%
    21:00 +4°C° 0.2 mm 4 mps 748 mmHg 92%
    22:00 +4°C° 0.5 mm 4 mps 748 mmHg 92%
    23:00 +4°C° 0.5 mm 4 mps 748 mmHg 93%

    Tomorrow, 19 November, Sunday

    Time Temperature Precipitation Wind Pressure Humidity
    00:00 +4°C° 0.5 mm 4 mps 748 mmHg 94%
    01:00 +4°C° 0.2 mm 4 mps 747 mmHg 94%
    02:00 +4°C° 0.2 mm 4 mps 747 mmHg 94%
    03:00 +4°C° 0.2 mm 4 mps 747 mmHg 94%
    04:00 +4°C° 0.1 mm 3 mps 747 mmHg 93%
    05:00 +3°C° 0.1 mm 3 mps 747 mmHg 92%
    06:00 +3°C° 0.1 mm 3 mps 748 mmHg 91%
    07:00 +3°C° 0 mm 3 mps 748 mmHg 88%
    08:00 +3°C° 0 mm 3 mps 749 mmHg 85%
    09:00 +4°C° 0 mm 4 mps 749 mmHg 83%
    10:00 +4°C° 0 mm 4 mps 749 mmHg 79%
    11:00 +5°C° 0 mm 4 mps 749 mmHg 75%
    12:00 +6°C° 0 mm 4 mps 750 mmHg 72%
    13:00 +6°C° 0 mm 4 mps 750 mmHg 75%
    14:00 +5°C° 0 mm 3 mps 750 mmHg 78%
    15:00 +5°C° 0 mm 3 mps 750 mmHg 81%
    16:00 +4°C° 0 mm 3 mps 750 mmHg 85%
    17:00 +3°C° 0 mm 3 mps 751 mmHg 89%
    18:00 +2°C° 0 mm 3 mps 751 mmHg 92%
    19:00 +2°C° 0 mm 3 mps 751 mmHg 93%
    20:00 +2°C° 0 mm 2 mps 751 mmHg 94%
    21:00 +2°C° 0 mm 2 mps 752 mmHg 94%
    22:00 +2°C° 0 mm 2 mps 752 mmHg 94%
    23:00 +1°C° 0 mm 2 mps 752 mmHg 94%

    Day after tomorrow, 20 November, Monday

    Time Temperature Precipitation Wind Pressure Humidity
    00:00 +1°C° 0 mm 2 mps 752 mmHg 95%
    01:00 +1°C° 0 mm 2 mps 752 mmHg 95%
    02:00 +1°C° 0 mm 2 mps 752 mmHg 95%
    03:00 -1°C° 0 mm 2 mps 751 mmHg 94%
    04:00 -1°C° 0 mm 2 mps 751 mmHg 93%
    05:00 +1°C° 0 mm 2 mps 751 mmHg 92%
    06:00 0°C° 0 mm 3 mps 751 mmHg 91%
    07:00 +1°C° 0 mm 3 mps 751 mmHg 89%
    08:00 +1°C° 0 mm 4 mps 750 mmHg 86%
    09:00 +1°C° 0 mm 5 mps 750 mmHg 83%
    10:00 +2°C° 0 mm 5 mps 750 mmHg 83%
    11:00 +3°C° 0 mm 5 mps 749 mmHg 82%
    12:00 +4°C° 0 mm 6 mps 749 mmHg 82%
    13:00 +4°C° 0 mm 6 mps 748 mmHg 84%
    14:00 +5°C° 0 mm 6 mps 748 mmHg 86%
    15:00 +5°C° 0 mm 6 mps 747 mmHg 87%
    16:00 +5°C° 0 mm 6 mps 746 mmHg 88%
    17:00 +5°C° 0 mm 7 mps 746 mmHg 89%
    18:00 +5°C° 0 mm 7 mps 746 mmHg 89%
    19:00 +5°C° 0.6 mm 7 mps 745 mmHg 90%
    20:00 +6°C° 0.6 mm 7 mps 745 mmHg 90%
    21:00 +6°C° 0.6 mm 7 mps 745 mmHg 90%
    22:00 +6°C° 0.5 mm 7 mps 745 mmHg 91%
    23:00 +6°C° 0.5 mm 7 mps 745 mmHg 91%

    21 November, Tuesday

    Time Temperature Precipitation Wind Pressure Humidity
    00:00 +6°C° 0.5 mm 7 mps 745 mmHg 92%
    01:00 +6°C° 0.1 mm 7 mps 745 mmHg 92%
    02:00 +7°C° 0.1 mm 6 mps 745 mmHg 93%
    03:00 +8°C° 0.1 mm 6 mps 745 mmHg 93%
    04:00 +8°C° 0.1 mm 6 mps 745 mmHg 93%
    05:00 +7°C° 0.1 mm 6 mps 745 mmHg 94%
    06:00 +7°C° 0.1 mm 6 mps 745 mmHg 94%
    07:00 +7°C° 0.1 mm 6 mps 745 mmHg 93%
    08:00 +7°C° 0.1 mm 6 mps 746 mmHg 93%
    09:00 +7°C° 0.1 mm 6 mps 746 mmHg 93%
    10:00 +7°C° 0.1 mm 5 mps 746 mmHg 92%
    11:00 +7°C° 0.1 mm 5 mps 746 mmHg 92%
    12:00 +7°C° 0.1 mm 5 mps 746 mmHg 91%
    13:00 +7°C° 0 mm 5 mps 746 mmHg 91%
    14:00 +7°C° 0 mm 5 mps 745 mmHg 91%
    15:00 +7°C° 0 mm 4 mps 745 mmHg 90%
    16:00 +7°C° 0 mm 4 mps 745 mmHg 91%
    17:00 +7°C° 0 mm 4 mps 745 mmHg 91%
    18:00 +6°C° 0 mm 4 mps 745 mmHg 92%
    19:00 +6°C° 0 mm 4 mps 745 mmHg 92%
    20:00 +6°C° 0 mm 4 mps 745 mmHg 92%
    21:00 +6°C° 0 mm 4 mps 745 mmHg 92%
    22:00 +5°C° 0 mm 4 mps 745 mmHg 93%
    23:00 +5°C° 0 mm 3 mps 745 mmHg 93%

    22 November, Wednesday

    Time Temperature Precipitation Wind Pressure Humidity
    00:00 +5°C° 0 mm 3 mps 745 mmHg 93%
    01:00 +5°C° 0 mm 3 mps 745 mmHg 94%
    02:00 +5°C° 0 mm 3 mps 744 mmHg 94%
    03:00 +5°C° 0 mm 3 mps 744 mmHg 94%
    04:00 +5°C° 0 mm 3 mps 744 mmHg 94%
    05:00 +5°C° 0 mm 3 mps 745 mmHg 94%
    06:00 +5°C° 0 mm 3 mps 745 mmHg 94%
    07:00 +5°C° 0 mm 3 mps 745 mmHg 92%
    08:00 +5°C° 0 mm 3 mps 745 mmHg 90%
    09:00 +7°C° 0 mm 3 mps 745 mmHg 88%
    10:00 +8°C° 0 mm 3 mps 745 mmHg 84%
    11:00 +9°C° 0 mm 3 mps 744 mmHg 80%
    12:00 +10°C° 0 mm 3 mps 744 mmHg 77%
    13:00 +10°C° 0 mm 3 mps 743 mmHg 79%
    14:00 +9°C° 0 mm 2 mps 743 mmHg 80%
    15:00 +9°C° 0 mm 2 mps 743 mmHg 82%
    16:00 +8°C° 0 mm 2 mps 742 mmHg 84%
    17:00 +7°C° 0 mm 2 mps 742 mmHg 85%
    18:00 +6°C° 0 mm 2 mps 742 mmHg 87%
    19:00 +6°C° 0 mm 2 mps 742 mmHg 87%
    20:00 +6°C° 0 mm 2 mps 742 mmHg 86%
    21:00 +6°C° 0 mm 2 mps 742 mmHg 86%
    22:00 +6°C° 0 mm 2 mps 742 mmHg 86%
    23:00 +5°C° 0 mm 3 mps 741 mmHg 86%

    23 November, Thursday

    Time Temperature Precipitation Wind Pressure Humidity
    00:00 +5°C° 0 mm 3 mps 741 mmHg 86%
    01:00 +7°C° 0 mm 3 mps 741 mmHg 87%
    02:00 +6°C° 0 mm 4 mps 741 mmHg 88%
    03:00 +6°C° 0 mm 4 mps 740 mmHg 88%
    04:00 +7°C° 0 mm 4 mps 740 mmHg 87%
    05:00 +7°C° 0 mm 5 mps 740 mmHg 86%
    06:00 +7°C° 0 mm 5 mps 740 mmHg 85%
    07:00 +8°C° 0 mm 6 mps 741 mmHg 82%
    08:00 +9°C° 0 mm 6 mps 741 mmHg 78%
    09:00 +10°C° 0 mm 7 mps 741 mmHg 75%
    10:00 +11°C° 0 mm 7 mps 741 mmHg 73%
    11:00 +12°C° 0 mm 7 mps 741 mmHg 71%
    12:00 +14°C° 0 mm 7 mps 741 mmHg 69%
    13:00 +14°C° 0 mm 6 mps 742 mmHg 72%
    14:00 +13°C° 0 mm 6 mps 742 mmHg 74%
    15:00 +13°C° 0 mm 5 mps 742 mmHg 76%
    16:00 +12°C° 0 mm 5 mps 742 mmHg 78%
    17:00 +12°C° 0 mm 5 mps 743 mmHg 80%
    18:00 +11°C° 0 mm 4 mps 743 mmHg 82%
    19:00 +11°C° 0 mm 4 mps 743 mmHg 82%
    20:00 +11°C° 0 mm 4 mps 744 mmHg 83%
    21:00 +10°C° 0 mm 4 mps 744 mmHg 84%
    22:00 +10°C° 0 mm 4 mps 744 mmHg 83%
    23:00 +10°C° 0 mm 4 mps 744 mmHg 83%
    Show more